EN

Hourly Weather Labedzie

Today, 4 August, Wednesday

Time Temperature Precipitation Wind Pressure Humidity
00:00 +16°C° 0.4 mm 1 mps 747 mmHg 85%
01:00 +16°C° 0.4 mm 1 mps 747 mmHg 87%
02:00 +16°C° 0.1 mm 1 mps 747 mmHg 87%
03:00 +16°C° 0.1 mm 2 mps 747 mmHg 88%
04:00 +16°C° 0.1 mm 2 mps 747 mmHg 89%
05:00 +16°C° 0.2 mm 2 mps 747 mmHg 89%
06:00 +16°C° 0.2 mm 2 mps 747 mmHg 88%
07:00 +17°C° 0.2 mm 2 mps 747 mmHg 88%
08:00 +17°C° 0.6 mm 2 mps 748 mmHg 88%
09:00 +17°C° 0.6 mm 3 mps 748 mmHg 87%
10:00 +17°C° 0.6 mm 3 mps 748 mmHg 87%
11:00 +17°C° 0.2 mm 3 mps 748 mmHg 85%
12:00 +17°C° 0.2 mm 3 mps 748 mmHg 83%
13:00 +18°C° 0.2 mm 3 mps 747 mmHg 82%
14:00 +18°C° 0 mm 3 mps 747 mmHg 77%
15:00 +19°C° 0 mm 3 mps 747 mmHg 72%
16:00 +20°C° 0 mm 3 mps 747 mmHg 67%
17:00 +19°C° 0 mm 2 mps 747 mmHg 71%
18:00 +19°C° 0 mm 2 mps 747 mmHg 74%
19:00 +18°C° 0 mm 2 mps 747 mmHg 78%
20:00 +17°C° 0 mm 2 mps 747 mmHg 82%
21:00 +16°C° 0 mm 2 mps 747 mmHg 85%
22:00 +16°C° 0 mm 2 mps 747 mmHg 88%
23:00 +15°C° 0 mm 2 mps 746 mmHg 89%

Tomorrow, 5 August, Thursday

Time Temperature Precipitation Wind Pressure Humidity
00:00 +15°C° 0 mm 2 mps 746 mmHg 90%
01:00 +15°C° 0 mm 2 mps 746 mmHg 91%
02:00 +15°C° 0 mm 2 mps 746 mmHg 91%
03:00 +15°C° 0 mm 2 mps 746 mmHg 92%
04:00 +14°C° 0 mm 2 mps 746 mmHg 93%
05:00 +15°C° 0 mm 2 mps 746 mmHg 88%
06:00 +16°C° 0 mm 3 mps 746 mmHg 84%
07:00 +17°C° 0 mm 3 mps 745 mmHg 79%
08:00 +19°C° 0 mm 3 mps 745 mmHg 73%
09:00 +20°C° 0 mm 3 mps 745 mmHg 66%
10:00 +21°C° 0 mm 3 mps 745 mmHg 60%
11:00 +21°C° 0.1 mm 4 mps 745 mmHg 63%
12:00 +20°C° 0.1 mm 4 mps 744 mmHg 65%
13:00 +20°C° 0.1 mm 4 mps 744 mmHg 68%
14:00 +19°C° 0.4 mm 3 mps 744 mmHg 74%
15:00 +18°C° 0.4 mm 3 mps 744 mmHg 80%
16:00 +18°C° 0.4 mm 2 mps 744 mmHg 86%
17:00 +17°C° 0.2 mm 2 mps 744 mmHg 88%
18:00 +18°C° 0.2 mm 1 mps 743 mmHg 90%
19:00 +18°C° 0.2 mm 1 mps 743 mmHg 92%
20:00 +18°C° 0.1 mm 1 mps 743 mmHg 92%
21:00 +16°C° 0.1 mm 1 mps 743 mmHg 92%
22:00 +16°C° 0.1 mm 2 mps 743 mmHg 92%
23:00 +16°C° 0.3 mm 2 mps 743 mmHg 93%

Day after tomorrow, 6 August, Friday

Time Temperature Precipitation Wind Pressure Humidity
00:00 +16°C° 0.3 mm 2 mps 742 mmHg 93%
01:00 +16°C° 0.3 mm 2 mps 742 mmHg 94%
02:00 +16°C° 0.6 mm 3 mps 742 mmHg 94%
03:00 +16°C° 0.6 mm 3 mps 742 mmHg 95%
04:00 +16°C° 0.6 mm 3 mps 742 mmHg 96%
05:00 +16°C° 1.2 mm 3 mps 742 mmHg 96%
06:00 +16°C° 1.2 mm 3 mps 742 mmHg 96%
07:00 +16°C° 1.2 mm 2 mps 742 mmHg 97%
08:00 +16°C° 0.4 mm 2 mps 742 mmHg 94%
09:00 +16°C° 0.4 mm 2 mps 743 mmHg 92%
10:00 +17°C° 0.4 mm 2 mps 743 mmHg 89%
11:00 +17°C° 0.1 mm 2 mps 743 mmHg 87%
12:00 +17°C° 0.1 mm 2 mps 743 mmHg 84%
13:00 +18°C° 0.1 mm 2 mps 743 mmHg 82%
14:00 +19°C° 0 mm 2 mps 743 mmHg 76%
15:00 +19°C° 0 mm 2 mps 743 mmHg 71%
16:00 +20°C° 0 mm 2 mps 743 mmHg 66%
17:00 +20°C° 0 mm 1 mps 743 mmHg 69%
18:00 +20°C° 0 mm 1 mps 743 mmHg 72%
19:00 +17°C° 0 mm 0 mps 743 mmHg 75%
20:00 +18°C° 0 mm 1 mps 744 mmHg 77%
21:00 +18°C° 0 mm 1 mps 744 mmHg 79%
22:00 +16°C° 0 mm 1 mps 744 mmHg 81%
23:00 +16°C° 0 mm 2 mps 744 mmHg 83%

7 August, Saturday

Time Temperature Precipitation Wind Pressure Humidity
00:00 +15°C° 0 mm 2 mps 744 mmHg 86%
01:00 +15°C° 0 mm 2 mps 744 mmHg 89%
02:00 +15°C° 0 mm 2 mps 744 mmHg 89%
03:00 +14°C° 0 mm 2 mps 744 mmHg 89%
04:00 +14°C° 0 mm 2 mps 744 mmHg 89%
05:00 +16°C° 0 mm 2 mps 745 mmHg 84%
06:00 +17°C° 0 mm 2 mps 745 mmHg 78%
07:00 +18°C° 0 mm 2 mps 745 mmHg 72%
08:00 +21°C° 0 mm 1 mps 745 mmHg 65%
09:00 +22°C° 0 mm 1 mps 745 mmHg 58%
10:00 +24°C° 0 mm 1 mps 745 mmHg 51%
11:00 +25°C° 0 mm 1 mps 745 mmHg 48%
12:00 +25°C° 0 mm 1 mps 745 mmHg 45%
13:00 +26°C° 0 mm 2 mps 745 mmHg 42%
14:00 +27°C° 0 mm 2 mps 745 mmHg 42%
15:00 +27°C° 0 mm 2 mps 745 mmHg 43%
16:00 +27°C° 0 mm 1 mps 744 mmHg 43%
17:00 +26°C° 0 mm 2 mps 744 mmHg 47%
18:00 +25°C° 0 mm 2 mps 744 mmHg 51%
19:00 +24°C° 0 mm 2 mps 744 mmHg 55%
20:00 +22°C° 0 mm 3 mps 744 mmHg 57%
21:00 +21°C° 0 mm 3 mps 745 mmHg 59%
22:00 +20°C° 0 mm 3 mps 745 mmHg 61%
23:00 +20°C° 0 mm 3 mps 745 mmHg 65%

8 August, Sunday

Time Temperature Precipitation Wind Pressure Humidity
00:00 +19°C° 0 mm 3 mps 745 mmHg 68%
01:00 +19°C° 0 mm 3 mps 744 mmHg 72%
02:00 +19°C° 0 mm 3 mps 744 mmHg 73%
03:00 +19°C° 0 mm 3 mps 744 mmHg 74%
04:00 +18°C° 0 mm 3 mps 744 mmHg 75%
05:00 +19°C° 0 mm 3 mps 745 mmHg 76%
06:00 +19°C° 0 mm 2 mps 745 mmHg 78%
07:00 +19°C° 0 mm 2 mps 745 mmHg 79%
08:00 +20°C° 0 mm 3 mps 746 mmHg 78%
09:00 +21°C° 0 mm 3 mps 746 mmHg 76%
10:00 +22°C° 0 mm 4 mps 746 mmHg 74%
11:00 +22°C° 0 mm 4 mps 747 mmHg 71%
12:00 +23°C° 0 mm 4 mps 747 mmHg 67%
13:00 +25°C° 0 mm 5 mps 747 mmHg 64%
14:00 +25°C° 0 mm 4 mps 748 mmHg 61%
15:00 +25°C° 0 mm 3 mps 748 mmHg 57%
16:00 +25°C° 0 mm 3 mps 748 mmHg 54%
17:00 +25°C° 0 mm 2 mps 748 mmHg 57%
18:00 +24°C° 0 mm 2 mps 748 mmHg 59%
19:00 +23°C° 0 mm 1 mps 749 mmHg 61%
20:00 +22°C° 0 mm 1 mps 749 mmHg 62%
21:00 +22°C° 0 mm 1 mps 749 mmHg 63%
22:00 +21°C° 0 mm 1 mps 749 mmHg 64%
23:00 +20°C° 0 mm 2 mps 750 mmHg 65%

9 August, Monday

Time Temperature Precipitation Wind Pressure Humidity
00:00 +20°C° 0 mm 3 mps 750 mmHg 65%
01:00 +20°C° 0 mm 3 mps 750 mmHg 66%
02:00 +19°C° 0.6 mm 3 mps 750 mmHg 73%
03:00 +18°C° 0.6 mm 3 mps 751 mmHg 80%
04:00 +17°C° 0.6 mm 3 mps 751 mmHg 87%
05:00 +18°C° 0 mm 3 mps 751 mmHg 85%
06:00 +18°C° 0 mm 3 mps 751 mmHg 83%
07:00 +19°C° 0 mm 4 mps 751 mmHg 81%
08:00 +20°C° 0 mm 4 mps 751 mmHg 73%
09:00 +21°C° 0 mm 4 mps 752 mmHg 66%
10:00 +23°C° 0 mm 4 mps 752 mmHg 58%
11:00 +25°C° 0 mm 4 mps 752 mmHg 52%
12:00 +26°C° 0 mm 4 mps 752 mmHg 47%
13:00 +27°C° 0 mm 5 mps 752 mmHg 41%
14:00 +26°C° 0 mm 4 mps 751 mmHg 43%
15:00 +25°C° 0 mm 4 mps 751 mmHg 45%
16:00 +25°C° 0 mm 4 mps 751 mmHg 48%
17:00 +24°C° 0 mm 3 mps 752 mmHg 50%
18:00 +22°C° 0 mm 3 mps 752 mmHg 53%
19:00 +21°C° 0 mm 2 mps 752 mmHg 56%
20:00 +20°C° 0 mm 2 mps 752 mmHg 56%
21:00 +20°C° 0 mm 2 mps 752 mmHg 55%
22:00 +19°C° 0 mm 2 mps 752 mmHg 55%
23:00 +19°C° 0 mm 2 mps 752 mmHg 56%
Show more